Location: Radomski Observatory
(40.2854°N, 79.5145°W)
Time: 11:17:15
(UTC-05:00)

Amateur Radio Satellites - All Passes

Search period start: 25 January 2015 10:47
Search period end: 26 January 2015 10:47
Location: Radomski Observatory, 40.2854°N, 79.5145°W

Satellite Date Start Highest point End Downlink Frequencies (MHz)
Time Altitude Azimuth
VERMONT LUNAR 25 Jan 10:47:21 10:50:37 39° 158° (SSE) 10:53:56 437.305
SEEDS 25 Jan 10:48:11 10:49:52 12° 295° (WNW) 10:51:21 437.485
UWE-3 25 Jan 10:54:52 10:59:16 46° 287° (WNW) 11:03:29 435.000/436.395/437.385
BEESAT 3 25 Jan 10:57:19 10:59:05 13° 39° (NE) 11:00:59 437.485
NANOSAT C BR1 25 Jan 10:58:54 11:02:58 43° 262° (W) 11:07:04 145.865
HUMSAT D 25 Jan 11:10:50 11:15:05 64° 285° (WNW) 11:19:14 437.325/437.525
QB50P2 25 Jan 11:10:54 11:14:44 31° 264° (W) 11:18:34 145.880/145.840
VELOX 1 25 Jan 11:15:49 11:20:19 76° 286° (WNW) 11:24:48 145.980
RS-15 25 Jan 11:15:55 11:23:28 20° 10° (N) 11:31:21 29.354- 29.394
DOVE 4 25 Jan 11:18:37 11:20:30 12° 299° (WNW) 11:22:05 437.250
PHONESAT 2.4 25 Jan 11:19:40 11:23:05 39° 158° (SSE) 11:26:31 2401.200-2431.200
HO-68 25 Jan 11:20:09 11:24:42 18° 304° (NW) 11:28:57 435.675
QB50P1 25 Jan 11:22:17 11:25:48 24° 266° (W) 11:29:15 145.935-145.965
ANTELSAT 25 Jan 11:22:35 11:25:47 17° 269° (W) 11:28:49 437.575/2403.000
50 SAT 25 Jan 11:28:15 11:32:14 52° 286° (WNW) 11:36:09 437.505
Oscar 11 25 Jan 11:32:26 11:34:04 12° 296° (WNW) 11:35:30 145.826/435.025
SO-50 25 Jan 11:33:28 11:37:59 71° 120° (ESE) 11:42:41 436.795
TIGRISAT 25 Jan 11:33:52 11:36:23 14° 271° (W) 11:38:39 435.000
POLYITAN 1 25 Jan 11:34:36 11:37:38 18° 268° (W) 11:40:32 437.675
CUBEBUG 1 25 Jan 11:37:53 11:42:21 77° 102° (ESE) 11:46:47 437.445
CINEMA 3 25 Jan 11:39:09 11:40:31 11° 299° (WNW) 11:41:36 145.822/145.860
SPROUT 25 Jan 11:42:02 11:45:12 20° 92° (E) 11:48:28 437.525
CUBEBUG 2 25 Jan 11:43:19 11:45:50 14° 296° (WNW) 11:48:07 437.445
AIST 2 25 Jan 11:48:27 11:51:02 16° 42° (NE) 11:53:42 435.215
AIST 1 25 Jan 11:55:47 11:59:59 66° 96° (E) 12:04:14
BUGSAT 1 25 Jan 11:59:50 12:01:26 12° 271° (W) 12:02:48 437.445
ESTCUBE 1 25 Jan 12:10:21 12:14:40 44° 288° (WNW) 12:18:58 437.505/2401.250
BEESAT 2 25 Jan 12:15:00 12:19:07 53° 55° (NE) 12:23:10 435.950
AISAT 25 Jan 12:23:01 12:25:50 16° 295° (WNW) 12:28:29 437.250
VERMONT LUNAR 25 Jan 12:25:07 12:28:38 89° 353° (N) 12:32:11 437.305
GONETS M04 25 Jan 12:30:50 12:39:07 48° 74° (ENE) 12:47:27
BEESAT 3 25 Jan 12:33:42 12:37:53 85° 239° (WSW) 12:41:59 437.485
TISAT 1 25 Jan 12:33:44 12:38:03 76° 102° (ESE) 12:42:20 437.305
SWISSCUBE 25 Jan 12:33:47 12:35:20 12° 88° (E) 12:37:11 437.505
Oscar 19 25 Jan 12:44:01 12:49:08 62° 74° (ENE) 12:54:18 437.125/150
BEESAT 25 Jan 12:49:23 12:52:15 16° 91° (E) 12:55:20 436.000
ITUPSAT 1 25 Jan 12:50:24 12:53:19 16° 91° (E) 12:56:25 437.325
ITAMSAT 1 25 Jan 12:51:16 12:55:29 27° 67° (ENE) 12:59:48 435.822/435.867
PHONESAT 2.4 25 Jan 12:57:53 13:01:32 90° 326° (NNW) 13:05:13 2401.200-2431.200
SO-50 25 Jan 13:15:59 13:19:07 17° 320° (NW) 13:22:12 436.795
CUBEBUG 1 25 Jan 13:17:04 13:18:11 11° 297° (WNW) 13:19:04 437.445
SPROUT 25 Jan 13:17:27 13:21:26 35° 289° (WNW) 13:25:21 437.525
Gurwin Techsat 1B 25 Jan 13:21:58 13:26:40 34° 69° (ENE) 13:31:28 435.225
AIST 2 25 Jan 13:25:53 13:30:08 66° 242° (WSW) 13:34:19 435.215
RS-15 25 Jan 13:29:29 13:40:01 43° 42° (NE) 13:51:06 29.354- 29.394
HORYU 2 25 Jan 13:32:19 13:33:57 12° 63° (ENE) 13:35:49 437.375
AO-7 25 Jan 13:47:15 13:53:06 23° 54° (NE) 13:59:15 29.400- 29.500
BEESAT 2 25 Jan 13:54:42 13:56:57 14° 250° (WSW) 13:59:01 435.950
VERMONT LUNAR 25 Jan 14:03:16 14:06:48 79° 192° (SSW) 14:10:21 437.305
SWISSCUBE 25 Jan 14:09:02 14:13:49 70° 285° (WNW) 14:18:34 437.505
TISAT 1 25 Jan 14:12:35 14:13:20 10° 297° (WNW) 14:13:51 437.305
PCSat 25 Jan 14:15:12 14:20:29 50° 56° (NE) 14:25:45 145.827
KKS-1 25 Jan 14:20:22 14:24:14 28° 95° (E) 14:28:07 437.445
STARS 25 Jan 14:24:15 14:27:30 20° 93° (E) 14:30:52 437.465
BEESAT 25 Jan 14:25:51 14:30:29 51° 288° (WNW) 14:35:05 436.000
Oscar 19 25 Jan 14:25:53 14:29:01 15° 271° (W) 14:31:54 437.125/150
ITUPSAT 1 25 Jan 14:26:56 14:31:34 51° 288° (WNW) 14:36:12 437.325
GONETS M04 25 Jan 14:28:03 14:35:47 36° 273° (W) 14:43:21
ITAMSAT 1 25 Jan 14:30:03 14:34:51 37° 263° (W) 14:39:38 435.822/435.867
PHONESAT 2.4 25 Jan 14:36:30 14:40:09 79° 191° (S) 14:43:50 2401.200-2431.200
DANDE 25 Jan 14:37:26 14:42:02 18° 57° (ENE) 14:46:14 436.750
AUBIESAT-1 25 Jan 15:00:31 15:02:26 15° 98° (E) 15:04:30 437.475
Gurwin Techsat 1B 25 Jan 15:02:05 15:06:42 29° 265° (W) 15:11:16 435.225
HORYU 2 25 Jan 15:05:37 15:10:07 70° 258° (WSW) 15:14:38 437.375
CUSAT 1 25 Jan 15:28:33 15:35:09 48° 72° (ENE) 15:40:11 437.405
AO-7 25 Jan 15:36:37 15:45:01 87° 253° (WSW) 15:53:27 29.400- 29.500
VERMONT LUNAR 25 Jan 15:41:40 15:44:42 27° 207° (SSW) 15:47:45 437.305
RS-15 25 Jan 15:41:53 15:53:05 63° 245° (WSW) 16:04:43 29.354- 29.394
JAS-2 25 Jan 15:54:19 15:59:50 54° 73° (ENE) 16:04:59 435.910
KKS-1 25 Jan 15:57:01 16:00:50 27° 291° (WNW) 16:04:33 437.445
M-CUBED/EXP-1 PRIME 25 Jan 15:57:26 16:00:45 74° 289° (WNW) 16:04:05 437.505
PCSat 25 Jan 15:59:25 16:03:36 22° 252° (WSW) 16:07:36 145.827
STARS 25 Jan 16:00:02 16:04:09 36° 289° (WNW) 16:08:11 437.465
PHONESAT 2.4 25 Jan 16:15:19 16:18:30 28° 207° (SSW) 16:21:41 2401.200-2431.200
DANDE 25 Jan 16:19:33 16:26:52 77° 262° (W) 16:32:16 436.750
CUTE-I 25 Jan 16:23:21 16:26:14 15° 62° (ENE) 16:29:21 437.470
AUBIESAT-1 25 Jan 16:34:40 16:37:30 26° 294° (WNW) 16:40:19 437.475
MOZHAYETS 4 25 Jan 17:04:51 17:09:24 66° 101° (E) 17:13:56
O/OREOS (USA 219) 25 Jan 17:08:31 17:12:58 74° 110° (ESE) 17:17:29 437.305
CUSAT 1 25 Jan 17:12:33 17:17:34 23° 277° (W) 17:21:32 437.405
AO-7 25 Jan 17:33:56 17:39:07 17° 272° (W) 17:43:46 29.400- 29.500
Cubesat XI-IV 25 Jan 17:39:12 17:44:30 75° 75° (ENE) 17:49:51 437.490
JAS-2 25 Jan 17:41:27 17:45:21 18° 268° (W) 17:48:50 435.910
RS-15 25 Jan 17:59:41 18:03:45 12° 262° (W) 18:06:35 29.354- 29.394
CUTE-I 25 Jan 18:00:28 18:05:46 72° 258° (WSW) 18:11:07 437.470
DANDE 25 Jan 18:07:30 18:08:38 10° 285° (WNW) 18:09:14 436.750
HO-68 25 Jan 18:15:54 18:18:35 13° 53° (NE) 18:21:40 435.675
SO-50 25 Jan 18:27:20 18:28:33 11° 33° (NNE) 18:29:59 436.795
MOZHAYETS 4 25 Jan 18:44:01 18:46:10 13° 296° (WNW) 18:48:05
CUBESAT XI-V 25 Jan 18:45:23 18:50:00 56° 100° (E) 18:54:38 437.345
STRAND 1 25 Jan 18:49:51 18:54:44 43° 98° (E) 18:59:38 437.568
O/OREOS (USA 219) 25 Jan 18:50:59 18:53:02 12° 309° (NW) 18:54:53 437.305
PRISM 25 Jan 18:56:18 19:00:26 73° 284° (WNW) 19:04:34 437.425
CANX-2 25 Jan 19:03:36 19:05:10 12° 65° (ENE) 19:06:56 2200.000
DOVE 4 25 Jan 19:09:19 19:10:43 11° 60° (ENE) 19:12:25 437.250
Cubesat XI-IV 25 Jan 19:22:45 19:25:18 13° 272° (W) 19:27:32 437.490
CUTE 1.7 + AOD 2 25 Jan 19:26:45 19:29:48 20° 68° (ENE) 19:32:57 437.475
YUBILEINY 25 Jan 19:29:32 19:37:26 42° 88° (E) 19:45:29 435.215
AAUSAT CUBESAT 2 25 Jan 19:30:45 19:32:41 13° 66° (ENE) 19:34:49 437.432
BRITE-PL 25 Jan 19:55:25 20:00:12 58° 73° (ENE) 20:05:26 437.365/2234.400
HO-68 25 Jan 19:58:07 20:05:09 67° 71° (ENE) 20:12:15 435.675
SEEDS 25 Jan 20:02:06 20:06:04 40° 73° (ENE) 20:10:05 437.485
DX 1 25 Jan 20:05:18 20:05:51 10° 62° (ENE) 20:06:38 434.975-435.025
SO-50 25 Jan 20:05:23 20:10:15 57° 54° (NE) 20:15:06 436.795
GOMX 1 25 Jan 20:11:34 20:16:24 60° 74° (ENE) 20:21:37 467.674
UWE-3 25 Jan 20:17:01 20:19:27 15° 65° (ENE) 20:22:07 435.000/436.395/437.385
CUBESAT XI-V 25 Jan 20:24:14 20:27:04 16° 295° (WNW) 20:29:43 437.345
STRAND 1 25 Jan 20:29:39 20:33:42 23° 294° (WNW) 20:37:39 437.568
COMPASS 1 25 Jan 20:34:14 20:38:29 78° 76° (ENE) 20:42:43 437.405
CANX-2 25 Jan 20:36:23 20:40:40 63° 260° (W) 20:44:56 2200.000
DOVE 4 25 Jan 20:42:46 20:47:42 88° 70° (ENE) 20:52:56 437.250
Oscar 11 25 Jan 20:48:17 20:52:27 47° 73° (ENE) 20:56:40 145.826/435.025
CINEMA 3 25 Jan 20:59:43 21:04:33 77° 76° (ENE) 21:09:36 145.822/145.860
CUTE 1.7 + AOD 2 25 Jan 21:01:33 21:05:32 36° 263° (W) 21:09:30 437.475
CUBEBUG 2 25 Jan 21:02:25 21:06:56 49° 73° (ENE) 21:11:35 437.445
AAUSAT CUBESAT 2 25 Jan 21:03:49 21:07:58 54° 260° (W) 21:12:07 437.432
UKube-1 25 Jan 21:21:15 21:25:33 67° 74° (ENE) 21:29:52 .
DELFI C3 25 Jan 21:21:48 21:25:55 88° 257° (WSW) 21:30:02 145.870
YUBILEINY 25 Jan 21:26:12 21:34:19 41° 288° (WNW) 21:42:23 435.215
ZACube-1 25 Jan 21:27:40 21:32:12 63° 74° (ENE) 21:36:47 437.345
ESTCUBE 1 25 Jan 21:34:42 21:37:17 16° 65° (ENE) 21:40:03 437.505/2401.250
BRITE-PL 25 Jan 21:36:15 21:39:19 16° 273° (W) 21:42:18 437.365/2234.400
DX 1 25 Jan 21:37:13 21:41:33 78° 257° (WSW) 21:45:56 434.975-435.025
SEEDS 25 Jan 21:39:15 21:42:07 17° 269° (W) 21:44:50 437.485
FUNcube-1 25 Jan 21:40:57 21:45:32 86° 72° (ENE) 21:50:11 145.935
AISAT 25 Jan 21:42:49 21:47:00 43° 72° (ENE) 21:51:16 437.250
SO-50 25 Jan 21:47:04 21:50:27 18° 249° (WSW) 21:53:39 436.795
HO-68 25 Jan 21:48:01 21:53:31 22° 269° (W) 21:58:45 435.675
TIGRISAT 25 Jan 21:49:15 21:51:03 12° 88° (E) 21:53:04 435.000
UWE-3 25 Jan 21:50:56 21:55:32 62° 259° (W) 22:00:13 435.000/436.395/437.385
GOMX 1 25 Jan 21:52:03 21:55:07 16° 273° (W) 21:58:02 467.674
HUMSAT D 25 Jan 22:01:59 22:06:20 83° 77° (ENE) 22:10:44 437.325/437.525
AIST 1 25 Jan 22:04:37 22:07:15 16° 70° (ENE) 22:10:04
POPSAT HIP 1 25 Jan 22:08:03 22:09:27 12° 89° (E) 22:11:07 437.405
DUCHIFAT 1 25 Jan 22:12:37 22:14:34 13° 89° (E) 22:16:43 145.980
VELOX 1 25 Jan 22:12:59 22:17:24 90° 259° (W) 22:21:53 145.980
50 SAT 25 Jan 22:14:48 22:18:57 88° 68° (ENE) 22:23:07 437.505
ISS 25 Jan 22:22:44 22:24:50 16° 132° (SE) 22:27:03 145.825
Oscar 11 25 Jan 22:26:23 22:28:58 15° 270° (W) 22:31:21 145.826/435.025
CUBEBUG 1 25 Jan 22:33:39 22:37:54 59° 74° (ENE) 22:42:13 437.445
SPROUT 25 Jan 22:36:46 22:39:15 16° 66° (ENE) 22:41:55 437.525
UNISAT 6 25 Jan 22:38:07 22:42:26 45° 98° (E) 22:46:39 437.425
CINEMA 3 25 Jan 22:40:47 22:42:29 11° 274° (W) 22:43:53 145.822/145.860
CUBEBUG 2 25 Jan 22:40:48 22:43:59 17° 270° (W) 22:47:01 437.445
NANOSAT C BR1 25 Jan 22:44:48 22:48:36 31° 96° (E) 22:52:27 145.865
QB50P2 25 Jan 22:56:36 23:00:43 42° 98° (E) 23:04:49 145.880/145.840
UKube-1 25 Jan 23:01:34 23:02:16 10° 272° (W) 23:02:40 .
ZACube-1 25 Jan 23:07:02 23:09:05 12° 272° (W) 23:10:54 437.345
QB50P1 25 Jan 23:07:16 23:11:31 56° 100° (E) 23:15:44 145.935-145.965
ESTCUBE 1 25 Jan 23:09:26 23:13:49 51° 261° (W) 23:18:12 437.505/2401.250
ANTELSAT 25 Jan 23:13:41 23:18:12 73° 285° (WNW) 23:22:33 437.575/2403.000
POLYITAN 1 25 Jan 23:19:17 23:23:38 79° 102° (ESE) 23:27:56 437.675
AISAT 25 Jan 23:20:56 23:23:54 17° 269° (W) 23:26:43 437.250
TIGRISAT 25 Jan 23:23:53 23:28:19 57° 286° (WNW) 23:32:37 435.000
TISAT 1 25 Jan 23:25:40 23:29:46 52° 74° (ENE) 23:33:56 437.305
BUGSAT 1 25 Jan 23:39:39 23:43:57 80° 286° (WNW) 23:48:14 437.445
SWISSCUBE 25 Jan 23:40:06 23:42:29 14° 63° (ENE) 23:45:04 437.505
AIST 1 25 Jan 23:41:06 23:45:11 41° 267° (W) 23:49:17
POPSAT HIP 1 25 Jan 23:41:34 23:45:50 59° 286° (WNW) 23:50:03 437.405
DUCHIFAT 1 25 Jan 23:46:37 23:50:49 52° 286° (WNW) 23:54:59 145.980
BEESAT 25 Jan 23:55:45 23:58:58 19° 66° (ENE) 00:02:20 436.000
ITUPSAT 1 25 Jan 23:57:07 00:00:21 19° 66° (ENE) 00:03:45 437.325
ISS 25 Jan 23:57:53 00:01:06 52° 327° (NNW) 00:04:21 145.825
SPROUT 26 Jan 00:10:52 00:15:01 47° 261° (W) 00:19:13 437.525
CUBEBUG 1 26 Jan 00:13:07 00:14:46 12° 272° (W) 00:16:10 437.445
UNISAT 6 26 Jan 00:15:54 00:18:55 17° 294° (WNW) 00:21:44 437.425
NANOSAT C BR1 26 Jan 00:20:56 00:24:22 23° 292° (WNW) 00:27:41 145.865
QB50P2 26 Jan 00:33:28 00:36:20 17° 294° (WNW) 00:39:03 145.880/145.840
QB50P1 26 Jan 00:44:47 00:47:00 13° 295° (WNW) 00:49:01 145.935-145.965
Oscar 19 26 Jan 00:56:55 01:00:53 23° 93° (E) 01:04:57 437.125/150
TISAT 1 26 Jan 01:03:58 01:06:00 13° 271° (W) 01:07:49 437.305
M-CUBED/EXP-1 PRIME 26 Jan 01:13:55 01:15:21 12° 62° (ENE) 01:16:56 437.505
SWISSCUBE 26 Jan 01:15:10 01:19:53 64° 259° (WSW) 01:24:38 437.505
KKS-1 26 Jan 01:18:28 01:22:04 25° 68° (ENE) 01:25:48 437.445
STARS 26 Jan 01:21:29 01:24:26 18° 66° (ENE) 01:27:31 437.465
GONETS M04 26 Jan 01:30:50 01:39:16 56° 91° (E) 01:47:45
BEESAT 26 Jan 01:31:56 01:36:31 47° 261° (W) 01:41:07 436.000
ITUPSAT 1 26 Jan 01:33:23 01:37:58 46° 261° (W) 01:42:34 437.325
ISS 26 Jan 01:36:12 01:38:13 15° 346° (NNW) 01:40:13 145.825
Gurwin Techsat 1B 26 Jan 01:40:05 01:42:34 14° 88° (E) 01:45:22 435.225
O/OREOS (USA 219) 26 Jan 01:41:08 01:43:36 15° 52° (NE) 01:46:14 437.305
AUBIESAT-1 26 Jan 01:48:19 01:51:40 25° 66° (ENE) 01:54:52 437.475
BEESAT 2 26 Jan 02:12:15 02:13:28 11° 109° (ESE) 02:14:55 435.950
BEESAT 3 26 Jan 02:28:23 02:31:22 20° 112° (ESE) 02:34:28 437.485
Oscar 19 26 Jan 02:35:35 02:40:27 42° 290° (WNW) 02:45:14 437.125/150
ITAMSAT 1 26 Jan 02:42:50 02:48:05 81° 102° (ESE) 02:53:20 435.822/435.867
M-CUBED/EXP-1 PRIME 26 Jan 02:45:52 02:50:03 60° 253° (WSW) 02:53:55 437.505
KKS-1 26 Jan 02:54:40 02:58:38 30° 264° (W) 03:02:35 437.445
STARS 26 Jan 02:56:24 03:00:38 43° 262° (W) 03:04:54 437.465
CUSAT 1 26 Jan 02:56:30 02:59:09 12° 78° (ENE) 03:02:30 437.405
HORYU 2 26 Jan 02:58:21 03:01:51 23° 94° (E) 03:05:26 437.375
ISS 26 Jan 03:14:23 03:15:48 12° 6° (N) 03:17:16 145.825
Gurwin Techsat 1B 26 Jan 03:17:52 03:23:11 71° 286° (WNW) 03:28:28 435.225
O/OREOS (USA 219) 26 Jan 03:19:00 03:23:33 64° 251° (WSW) 03:28:05 437.305
AUBIESAT-1 26 Jan 03:23:04 03:26:34 25° 258° (WSW) 03:29:47 437.475
AIST 2 26 Jan 03:23:56 03:27:36 29° 114° (ESE) 03:31:22 435.215
GONETS M04 26 Jan 03:28:56 03:36:37 32° 292° (WNW) 03:44:05
AO-7 26 Jan 03:39:26 03:46:39 33° 95° (E) 03:54:01 29.400- 29.500
DANDE 26 Jan 03:46:14 03:52:28 27° 84° (E) 03:59:28 436.750
BEESAT 2 26 Jan 03:47:08 03:51:13 64° 304° (NW) 03:55:23 435.950
RS-15 26 Jan 03:56:29 04:03:42 22° 103° (ESE) 04:11:31 29.354- 29.394
BEESAT 3 26 Jan 04:05:28 04:09:18 37° 308° (NW) 04:13:11 437.485
MOZHAYETS 4 26 Jan 04:06:13 04:10:44 58° 74° (ENE) 04:15:16
ITAMSAT 1 26 Jan 04:24:26 04:27:00 13° 299° (WNW) 04:29:18 435.822/435.867
CUSAT 1 26 Jan 04:33:03 04:40:49 65° 94° (E) 04:49:14 437.405
HORYU 2 26 Jan 04:34:38 04:38:36 31° 290° (WNW) 04:42:29 437.375
JAS-2 26 Jan 04:47:12 04:52:36 50° 100° (E) 04:58:38 435.910
ISS 26 Jan 04:50:17 04:53:10 27° 26° (NNE) 04:56:05 145.825
PCSat 26 Jan 04:56:16 05:01:28 51° 114° (ESE) 05:06:44 145.827
AIST 2 26 Jan 05:02:29 05:06:13 28° 311° (NW) 05:09:57 435.215
DANDE 26 Jan 05:27:25 05:35:17 69° 283° (WNW) 05:44:00 436.750
AO-7 26 Jan 05:31:45 05:39:51 55° 294° (WNW) 05:47:49 29.400- 29.500
YUBILEINY 26 Jan 05:40:43 05:46:37 20° 62° (ENE) 05:52:55 435.215
MOZHAYETS 4 26 Jan 05:46:05 05:48:25 13° 271° (W) 05:50:31
PRISM 26 Jan 05:46:13 05:50:20 77° 74° (ENE) 05:54:28 437.425
CUBESAT XI-V 26 Jan 05:48:24 05:52:49 51° 73° (ENE) 05:57:19 437.345
Cubesat XI-IV 26 Jan 05:57:25 06:02:07 31° 95° (E) 06:06:54 437.490
RS-15 26 Jan 06:03:50 06:14:48 88° 304° (NW) 06:25:52 29.354- 29.394
STRAND 1 26 Jan 06:05:13 06:10:12 59° 73° (ENE) 06:15:14 437.568
CUSAT 1 26 Jan 06:17:30 06:24:32 30° 294° (WNW) 06:31:40 437.405
CUTE-I 26 Jan 06:18:11 06:23:22 48° 99° (E) 06:28:33 437.470
ISS 26 Jan 06:26:39 06:29:47 39° 223° (SW) 06:32:52 145.825
JAS-2 26 Jan 06:33:13 06:37:32 23° 293° (WNW) 06:42:01 435.910
PCSat 26 Jan 06:40:44 06:45:13 25° 312° (NW) 06:49:37 145.827
DANDE 26 Jan 07:15:40 07:20:39 16° 305° (NW) 07:25:18 436.750
AO-7 26 Jan 07:27:46 07:30:59 12° 314° (NW) 07:33:42 29.400- 29.500
CUBESAT XI-V 26 Jan 07:27:54 07:30:40 15° 270° (W) 07:33:14 437.345
HO-68 26 Jan 07:30:36 07:31:47 11° 84° (E) 07:33:35 435.675
YUBILEINY 26 Jan 07:35:57 07:44:46 85° 264° (W) 07:53:35 435.215
Cubesat XI-IV 26 Jan 07:37:26 07:42:14 33° 292° (WNW) 07:46:59 437.490
STRAND 1 26 Jan 07:46:43 07:49:53 16° 270° (W) 07:52:49 437.568
CUTE-I 26 Jan 07:59:00 08:03:10 23° 295° (WNW) 08:07:12 437.470
BRITE-PL 26 Jan 08:01:25 08:05:51 24° 91° (E) 08:10:19 437.365/2234.400
GOMX 1 26 Jan 08:15:02 08:19:04 22° 90° (E) 08:23:09 467.674
RS-15 26 Jan 08:19:34 08:28:57 30° 329° (NNW) 08:38:18 29.354- 29.394
COMPASS 1 26 Jan 08:20:31 08:22:21 13° 89° (E) 08:24:23 437.405
CANX-2 26 Jan 08:23:08 08:26:26 22° 93° (E) 08:29:48 2200.000
ANTELSAT 26 Jan 08:39:30 08:40:16 10° 62° (ENE) 08:41:17 437.575/2403.000
DOVE 4 26 Jan 08:43:24 08:47:50 28° 93° (E) 08:52:12 437.250
CUTE 1.7 + AOD 2 26 Jan 08:47:21 08:51:18 38° 97° (E) 08:55:15 437.475
TIGRISAT 26 Jan 08:48:03 08:50:02 13° 64° (ENE) 08:52:14 435.000
AAUSAT CUBESAT 2 26 Jan 08:48:20 08:51:40 24° 94° (E) 08:55:03 437.432
CINEMA 3 26 Jan 08:56:40 09:00:13 20° 91° (E) 09:03:47 145.822/145.860
CUBEBUG 2 26 Jan 08:57:29 08:58:17 11° 86° (E) 08:59:22 437.445
DELFI C3 26 Jan 09:04:23 09:06:18 13° 90° (E) 09:08:23 145.870
DUCHIFAT 1 26 Jan 09:06:59 09:07:24 10° 63° (ENE) 09:08:03 145.980
UKube-1 26 Jan 09:11:51 09:13:15 12° 89° (E) 09:14:55 .
HO-68 26 Jan 09:13:45 09:20:55 73° 104° (ESE) 09:28:04 435.675
ZACube-1 26 Jan 09:19:19 09:21:10 13° 88° (E) 09:23:14 437.345
SEEDS 26 Jan 09:22:42 09:26:56 85° 102° (ESE) 09:31:07 437.485
DX 1 26 Jan 09:27:08 09:30:11 19° 93° (E) 09:33:22 434.975-435.025
FUNcube-1 26 Jan 09:31:37 09:34:31 17° 91° (E) 09:37:31 145.935
YUBILEINY 26 Jan 09:35:26 09:40:27 16° 281° (WNW) 09:44:54 435.215
UNISAT 6 26 Jan 09:36:25 09:40:46 40° 72° (ENE) 09:45:12 437.425
NANOSAT C BR1 26 Jan 09:37:37 09:40:55 23° 68° (ENE) 09:44:20 145.865
BRITE-PL 26 Jan 09:39:08 09:44:38 48° 288° (WNW) 09:49:55 437.365/2234.400
UWE-3 26 Jan 09:42:19 09:46:14 28° 94° (E) 09:50:05 435.000/436.395/437.385
HUMSAT D 26 Jan 09:48:50 09:51:01 14° 90° (E) 09:53:23 437.325/437.525
QB50P2 26 Jan 09:49:25 09:53:10 31° 70° (ENE) 09:56:59 145.880/145.840
GOMX 1 26 Jan 09:52:13 09:57:30 49° 288° (WNW) 10:02:34 467.674
COMPASS 1 26 Jan 09:54:24 09:58:27 49° 286° (WNW) 10:02:27 437.405
50 SAT 26 Jan 09:57:01 09:58:35 12° 89° (E) 10:00:21 437.505
CANX-2 26 Jan 09:58:44 10:02:26 29° 289° (WNW) 10:06:03 2200.000
QB50P1 26 Jan 09:59:45 10:03:42 39° 72° (ENE) 10:07:44 145.935-145.965
VELOX 1 26 Jan 10:05:19 10:08:22 18° 92° (E) 10:11:33 145.980
VERMONT LUNAR 26 Jan 10:05:22 10:08:31 32° 155° (SSE) 10:11:42 437.305
ANTELSAT 26 Jan 10:11:43 10:16:26 88° 257° (WSW) 10:21:11 437.575/2403.000
POLYITAN 1 26 Jan 10:11:55 10:16:06 55° 74° (ENE) 10:20:21 437.675
Oscar 11 26 Jan 10:12:07 10:16:27 78° 284° (WNW) 10:20:44 145.826/435.025
DOVE 4 26 Jan 10:20:53 10:25:40 35° 290° (WNW) 10:30:12 437.250
SO-50 26 Jan 10:20:55 10:24:05 19° 111° (ESE) 10:27:28 436.795
TIGRISAT 26 Jan 10:21:34 10:26:16 72° 259° (WSW) 10:30:59 435.000
AAUSAT CUBESAT 2 26 Jan 10:23:48 10:27:20 27° 290° (WNW) 10:30:47 437.432
CUTE 1.7 + AOD 2 26 Jan 10:24:04 10:27:00 18° 293° (WNW) 10:29:47 437.475
CUBEBUG 1 26 Jan 10:25:23 10:26:53 12° 88° (E) 10:28:39 437.445
BUGSAT 1 26 Jan 10:29:21 10:33:23 65° 75° (ENE) 10:37:30 437.445
CUBEBUG 2 26 Jan 10:31:02 10:35:40 71° 285° (WNW) 10:40:06 437.445
CINEMA 3 26 Jan 10:33:02 10:37:41 42° 289° (WNW) 10:42:06 145.822/145.860
POPSAT HIP 1 26 Jan 10:33:44 10:38:01 84° 257° (WSW) 10:42:21 437.405
DELFI C3 26 Jan 10:37:58 10:41:52 44° 287° (WNW) 10:45:42 145.870
DUCHIFAT 1 26 Jan 10:38:28 10:42:43 75° 258° (WSW) 10:47:01 145.980
